Regional Weather Roundup
Issued by NWS

Home | Current Version | Previous Version | Graphics & Text | Print | Product List | Glossary Off
Versions: 1 2 3 4 5 6 7 8 9 10 11 12 13 14 15 16 17 18 19 20 21 22 23 24 25 26 27 28 29 30 31 32 33 34 35 36 37 38 39 40 41 42 43 44 45 46 47 48 49 50

000
ASUS43 KTOP 241208
RWRKS

WEATHER ROUNDUP FOR KANSAS
NATIONAL WEATHER SERVICE GOODLAND KS
700 AM CDT TUE APR 24 2018

NOTE:  "FAIR" INDICATES FEW OR NO CLOUDS BELOW 12,000 FEET WITH NO
SIGNIFICANT WEATHER AND/OR OBSTRUCTIONS TO VISIBILITY.

KSZ001>006-013>018-027>032-041>047-241300-
NORTHWEST KANSAS

CITY           SKY/WX    TMP DP  RH WIND       PRES   REMARKS
GOODLAND       CLOUDY    39  37  92 N21G31    30.25R WCI  29
6HR MIN TEMP:  39; 6HR MAX TEMP:  50; 6HR PCP:  0.36;

HAYS           CLOUDY    43  40  89 NW7       30.15R
HILL CITY      CLOUDY    54  46  74 NW18G28   30.19R
6HR MIN TEMP:  43; 6HR MAX TEMP:  54;

RUSSELL        PTCLDY    44  41  89 W8        30.13R
6HR MIN TEMP:  42; 6HR MAX TEMP:  57;

$$

KSZ061>065-074>080-084>089-241300-
SOUTHWEST KANSAS

CITY           SKY/WX    TMP DP  RH WIND       PRES   REMARKS
DODGE CITY     MOCLDY    50  44  80 SW5       30.14R
6HR MIN TEMP:  44; 6HR MAX TEMP:  50;

ELKHART        PTCLDY    47  45  95 E9        30.16F
GARDEN CITY    LGT RAIN  48  45  89 SW7       30.18R
6HR MIN TEMP:  45; 6HR MAX TEMP:  51; 6HR PCP: TRACE;

GREAT BEND     CLEAR     44  41  89 NW7       30.15R
LIBERAL        LGT RAIN  51  46  83 N8        30.19R
PRATT          CLEAR     43  40  88 W5        30.14R
6HR MIN TEMP:  43; 6HR MAX TEMP:  54;

$$

KSZ066>073-081>083-090>101-241300-
SOUTHEAST KANSAS

CITY           SKY/WX    TMP DP  RH WIND       PRES   REMARKS
CHANUTE        CLEAR     43  38  82 N5        30.10R
6HR MIN TEMP:  42; 6HR MAX TEMP:  48;

COFFEYVILLE    CLEAR     44  42  93 N3        30.09R
6HR MIN TEMP:  43; 6HR MAX TEMP:  51;

HUTCHINSON     CLEAR     47  39  74 CALM      30.11S
6HR MIN TEMP:  43; 6HR MAX TEMP:  50;

MEDICINE LODGE   N/A     44  42  93 N5        30.12R
NEWTON         CLEAR     49  36  61 NW5       30.13R
PARSONS        CLEAR     41  39  93 CALM      30.11R
6HR MIN TEMP:  41; 6HR MAX TEMP:  48;

WICHITA INTL   PTCLDY    49  42  77 CALM      30.12R
6HR MIN TEMP:  45; 6HR MAX TEMP:  58;

WICHITA JABRA  CLEAR     45  39  79 N5        30.11R
6HR MIN TEMP:  45; 6HR MAX TEMP:  57;

WICHITA MCCONL CLEAR     47  38  70 N7        30.11R
WINFIELD       CLEAR     44  44 100 W3        30.12R
6HR MIN TEMP:  44; 6HR MAX TEMP:  51;

$$

KSZ007>012-019>026-033>040-048>060-102>105-241300-
NORTHEAST KANSAS

CITY           SKY/WX    TMP DP  RH WIND       PRES   REMARKS
CONCORDIA      CLEAR     45  33  63 CALM      30.12R
6HR MIN TEMP:  45; 6HR MAX TEMP:  53;

EMPORIA        CLEAR     45  37  73 W5        30.10R
6HR MIN TEMP:  44; 6HR MAX TEMP:  52;

LAWRENCE       CLEAR     39  35  86 NW5       30.11R
6HR MIN TEMP:  37; 6HR MAX TEMP:  46;

MANHATTAN      CLEAR     39  36  89 CALM      30.12R
6HR MIN TEMP:  38; 6HR MAX TEMP:  47;

MARYSVILLE     CLEAR     36  32  87 CALM      30.12S
OLATHE IND     CLEAR     45  36  70 NW5       30.11R
6HR MIN TEMP:  44; 6HR MAX TEMP:  55;

OLATHE EXE     PTCLDY    51  32  48 N5        30.09R
6HR MIN TEMP:  50; 6HR MAX TEMP:  59;

SALINA         CLEAR     41  38  89 CALM      30.13R
6HR MIN TEMP:  41; 6HR MAX TEMP:  53;

TOPEKA BILLARD CLEAR     42  39  89 CALM      30.11R
6HR MIN TEMP:  39; 6HR MAX TEMP:  50;

TOPEKA FORBES  CLEAR     41  35  79 CALM      30.10R
6HR MIN TEMP:  40; 6HR MAX TEMP:  49;

$$



USA.gov is the U.S. government's official web portal to all federal, state and local government web resources and services.